Cloverdale, Indiana, United States (46120)
Lat: 39.51N, Lon: 86.79W
Wx Zone: INZ045
Local Info
Past Weather Observations for Tuesday, July 22, 2014

NOTE: This archive is for the closest National Weather Service station to Cloverdale. Information may differ from the station used for current weather conditions.

Click here for Long-term Archive

Time Weather Temperature Dewpoint Humidity Pressure Winds Precip Visibility
23:53
Clear
72°F / 22°C 68°F / 20°C 88% 30.04 in
(1017 mb)
Calm - 7SM
22:53
Mostly Cloudy
73°F / 23°C 70°F / 21°C 89% 30.04 in
(1017 mb)
SW 4.6 mph
(SW 7 kph)
- 9SM
21:53
Clear
Fog And Mist
72°F / 22°C 68°F / 20°C 88% 30.06 in
(1018 mb)
Calm - 5SM
20:53
Clear
75°F / 24°C 70°F / 21°C 83% 30.06 in
(1018 mb)
SW 3.5 mph
(SW 6 kph)
- 8SM
19:53
Clear
79°F / 26°C 72°F / 22°C 79% 30.06 in
(1018 mb)
NW 3.5 mph
(NW 6 kph)
- 10SM
18:53
Clear
82°F / 28°C 72°F / 22°C 70% 30.04 in
(1017 mb)
SSW 3.5 mph
(SSW 6 kph)
- 10SM
17:53
Clear
84°F / 29°C 70°F / 21°C 62% 30.04 in
(1017 mb)
SSW 5.8 mph
(SSW 9 kph)
- 10SM
16:53
Clear
86°F / 30°C 68°F / 20°C 55% 30.06 in
(1018 mb)
SSW 5.8 mph
(SSW 9 kph)
- 10SM
15:53
Clear
88°F / 31°C 68°F / 20°C 52% 30.06 in
(1018 mb)
SSW 6.9 mph
(SSW 11 kph)
- 10SM
14:53
Partly Cloudy
86°F / 30°C 66°F / 19°C 52% 30.06 in
(1018 mb)
SW 8.1 mph
(SW 13 kph)
- 10SM
13:53
Partly Cloudy
86°F / 30°C 66°F / 19°C 52% 30.09 in
(1019 mb)
SSW 8.1 mph
(SSW 13 kph)
- 10SM
12:53
Partly Cloudy
86°F / 30°C 66°F / 19°C 52% 30.09 in
(1019 mb)
SW 10.4 mph
(SW 17 kph)
- 10SM
11:53
Partly Cloudy
84°F / 29°C 66°F / 19°C 55% 30.09 in
(1019 mb)
Variable 6.9 mph
(Variable 11 kph)
- 10SM
10:53
Partly Cloudy
84°F / 29°C 66°F / 19°C 55% 30.12 in
(1020 mb)
S 6.9 mph
(S 11 kph)
- 10SM
09:53
Clear
82°F / 28°C 66°F / 19°C 58% 30.12 in
(1020 mb)
SSW 5.8 mph
(SSW 9 kph)
- 10SM
08:53
Clear
81°F / 27°C 66°F / 19°C 62% 30.12 in
(1020 mb)
Calm - 10SM
07:53
Clear
73°F / 23°C 66°F / 19°C 78% 30.12 in
(1020 mb)
Calm - 8SM
06:53
Clear
66°F / 19°C 63°F / 17°C 88% 30.12 in
(1020 mb)
Calm - 10SM
05:53
Clear
Fog And Mist
63°F / 17°C 61°F / 16°C 94% 30.12 in
(1020 mb)
Calm - 4SM
05:41
Obscured
Fog
63°F / 17°C 61°F / 16°C 94% 30.12 in
(1020 mb)
Calm - 1/4SM
04:53
Obscured
Fog
63°F / 17°C 61°F / 16°C 94% 30.12 in
(1020 mb)
Calm - 1/2SM
04:33
Obscured
Fog
63°F / 17°C 61°F / 16°C 94% 30.12 in
(1020 mb)
Calm - 1/4SM
04:29
Obscured
Fog And Mist
61°F / 16°C 61°F / 16°C 100% 30.12 in
(1020 mb)
Calm - 1SM
04:20
Partly Cloudy
Fog And Mist
61°F / 16°C 59°F / 15°C 94% 30.09 in
(1019 mb)
Calm - 2SM
04:04
Clear
Fog And Mist
63°F / 17°C 61°F / 16°C 94% 30.09 in
(1019 mb)
Calm - 2SM
03:53
Clear
Fog And Mist
63°F / 17°C 61°F / 16°C 94% 30.09 in
(1019 mb)
Calm - 3SM
03:46
Clear
Fog And Mist
63°F / 17°C 61°F / 16°C 94% 30.09 in
(1019 mb)
Calm - 1SM
03:34
Clear
Fog And Mist
63°F / 17°C 61°F / 16°C 94% 30.09 in
(1019 mb)
Calm - 2 1/2SM
03:05
Clear
Fog
63°F / 17°C 61°F / 16°C 94% 30.09 in
(1019 mb)
Calm - 1/2SM
02:53
Clear
Fog And Mist
63°F / 17°C 61°F / 16°C 94% 30.09 in
(1019 mb)
Calm - 1SM
02:46
Clear
Fog And Mist
63°F / 17°C 61°F / 16°C 94% 30.09 in
(1019 mb)
Calm - 1 3/4SM
02:27
Clear
Fog And Mist
63°F / 17°C 61°F / 16°C 94% 30.09 in
(1019 mb)
Calm - 3SM
02:21
Clear
Fog And Mist
63°F / 17°C 63°F / 17°C 100% 30.09 in
(1019 mb)
Calm - 1 1/2SM
02:01
Clear
Fog And Mist
63°F / 17°C 61°F / 16°C 94% 30.09 in
(1019 mb)
Calm - 2SM
01:53
Clear
Fog And Mist
63°F / 17°C 63°F / 17°C 100% 30.09 in
(1019 mb)
Calm - 3SM
01:13
Clear
Fog And Mist
64°F / 18°C 63°F / 17°C 94% 30.09 in
(1019 mb)
Calm - 4SM
01:09
Clear
Fog And Mist
64°F / 18°C 63°F / 17°C 94% 30.09 in
(1019 mb)
Calm - 1SM
01:00
Clear
Fog
64°F / 18°C 63°F / 17°C 94% 30.09 in
(1019 mb)
Calm - 1/4SM
00:53
Clear
Fog
64°F / 18°C 63°F / 17°C 94% 30.09 in
(1019 mb)
Calm - 1/2SM
00:51
Clear
Fog
64°F / 18°C 63°F / 17°C 94% 30.09 in
(1019 mb)
Calm - 1/2SM
00:44
Clear
Fog
64°F / 18°C 63°F / 17°C 94% 30.09 in
(1019 mb)
Calm - 1/4SM
00:35
Clear
Fog And Mist
64°F / 18°C 63°F / 17°C 94% 30.09 in
(1019 mb)
Calm - 3/4SM
00:06
Clear
Fog And Mist
66°F / 19°C 64°F / 18°C 94% 30.09 in
(1019 mb)
Calm - 4SM
Time Weather Temperature Dewpoint Humidity Pressure Winds Precip Visibility


Weather for websites

WeatherForYou.com, LLC is not responsible for any damages or problems caused by this service. Current weather conditions are obtained from the closest station including government and personal stations which may have varying degrees of accuracy. Weather forecasts are derived from the NOAA NDFD. Like all things, this site belongs to Jesus Christ... He just trusts me to maintain it. If you have any questions or comments email webmaster@weatherforyou.com

Copyright © 2014, WeatherForYou.com LLC. All rights reserved.